Location: Navajo
(48.7922°N, 105.0603°W)
Time: 00:42:28
(UTC+00:00)

CUBEBUG 2 - Pass Details

Date: 30 June 2022
Orbit: 584 x 692 km, 97.7° (Epoch: 16 August)

Event Time Altitude Azimuth Distance (km) Brightness Sun altitude
Rises 09:57:45 0° 15° (NNE) 2,829 ? -8.3°
Reaches altitude 10° 09:59:55 10° 18° (NNE) 1,929 ? -8.0°
Maximum altitude 10:04:04 69° 101° (ESE) 643 ? -7.6°
Drops below altitude 10° 10:08:18 10° 186° (S) 1,957 ? -7.1°
Enters shadow 10:09:36 - 188° (S) 2,497 ? -7.0°
